Marine Rouge — JG5115 — position and weather

sailwx.info

Track history (hours):
 
Tides and Currents Weather Stations Pressure Air Temp Water Temp Dewpoint Dewpoint Depression Visibility Wind Speed Wind Dir Waves Ship Positions

Marine Rouge

Last reported at 2014-Nov-28 12:33 UTC. Time now 2014-Nov-28 14:38 UTC.
Position N 35°27' E 139°39'.

Length 52 m; draft 2.8 m.

Type: Passenger vessel. MMSI: 431000518.

Date/timePositionNaut miles runAvg speedWind from/ knotsBaromVisibWave heightAir tempDewpointWater temp
2014-Nov-28 12:33N 35°27' E 139°39'2 1.8
2014-Nov-28 11:33N 35°27' E 139°41'2 1.8
2014-Nov-28 10:33N 35°27' E 139°39'1 0.5
2014-Nov-28 09:33N 35°27' E 139°39'0 0.1
2014-Nov-28 08:34N 35°27' E 139°39'0 0.5
2014-Nov-28 07:33N 35°27' E 139°39'1 0.5
2014-Nov-28 06:33N 35°27' E 139°39'0 0.1
2014-Nov-28 05:33N 35°27' E 139°39'0 0.1
2014-Nov-28 04:34N 35°27' E 139°39'1 0.6
2014-Nov-28 03:33N 35°27' E 139°39'1 0.6
2014-Nov-28 02:34N 35°27' E 139°39'0 0.0
2014-Nov-28 01:34N 35°27' E 139°39'0 0.0
2014-Nov-28 00:33N 35°27' E 139°39'0 0.0
2014-Nov-27 12:34N 35°27' E 139°39'1 1.2
2014-Nov-27 11:33N 35°28' E 139°40'1 1.1
2014-Nov-27 10:34N 35°27' E 139°39'1 0.5
2014-Nov-27 09:33N 35°27' E 139°39'1 1.3
2014-Nov-27 08:34N 35°28' E 139°40'1 1.3
2014-Nov-27 07:33N 35°27' E 139°39'1 0.5
2014-Nov-27 06:34N 35°27' E 139°39'0 0.1
2014-Nov-27 05:34N 35°27' E 139°39'0 0.1
2014-Nov-27 04:33N 35°27' E 139°39'1 0.6
2014-Nov-27 03:33N 35°27' E 139°39'1 0.6
2014-Nov-27 02:34N 35°27' E 139°39'0 0.0
2014-Nov-27 01:34N 35°27' E 139°39'0 0.0
2014-Nov-27 00:34N 35°27' E 139°39'1 0.1
2014-Nov-26 11:33N 35°28' E 139°39'1 1.3
2014-Nov-26 10:33N 35°27' E 139°40'1 1.2
2014-Nov-26 09:33N 35°27' E 139°39'0 0.0
2014-Nov-26 08:33N 35°27' E 139°39'3 3.2
2014-Nov-26 07:34N 35°27' E 139°43'3 3.1
2014-Nov-26 06:33N 35°27' E 139°39'0 0.1
2014-Nov-26 05:33N 35°27' E 139°39'0 0.1
2014-Nov-26 04:33N 35°27' E 139°39'3 3.0
2014-Nov-26 03:33N 35°27' E 139°43'3 3.0
2014-Nov-26 02:33N 35°27' E 139°39'0 0.0
2014-Nov-26 01:33N 35°27' E 139°39'0 0.0
2014-Nov-26 00:33N 35°27' E 139°39'0 0.0
2014-Nov-25 12:28N 35°27' E 139°39'2 2.1
2014-Nov-25 11:33N 35°27' E 139°42'2 2.2
2014-Nov-25 10:33N 35°27' E 139°39'1 0.6
2014-Nov-25 09:33N 35°27' E 139°39'2 1.7
2014-Nov-25 08:33N 35°28' E 139°40'1 1.3
2014-Nov-25 07:33N 35°27' E 139°39'1 0.6
2014-Nov-25 06:33N 35°27' E 139°39'0 0.1
2014-Nov-25 05:33N 35°27' E 139°39'0 0.1
2014-Nov-25 04:33N 35°27' E 139°39'1 0.5
2014-Nov-25 03:34N 35°27' E 139°39'1 0.5
2014-Nov-25 02:33N 35°27' E 139°39'0 0.0
2014-Nov-25 01:33N 35°27' E 139°39'0 0.0
2014-Nov-25 00:33N 35°27' E 139°39'0 0.0
2014-Nov-24 12:27N 35°27' E 139°39'1 0.7
2014-Nov-24 11:33N 35°28' E 139°39'1 0.6
2014-Nov-24 10:34N 35°27' E 139°39'1 0.5
2014-Nov-24 09:33N 35°27' E 139°39'0 0.0
2014-Nov-24 08:33N 35°27' E 139°39'1 0.5
2014-Nov-24 07:33N 35°27' E 139°39'1 0.5
2014-Nov-24 06:33N 35°27' E 139°39'0 0.1
2014-Nov-24 05:34N 35°27' E 139°39'0 0.1
2014-Nov-24 04:33N 35°27' E 139°39'1 0.5
2014-Nov-24 03:34N 35°27' E 139°39'1 0.5
2014-Nov-24 02:33N 35°27' E 139°39'0 0.0
2014-Nov-24 01:33N 35°27' E 139°39'0 0.0
2014-Nov-24 00:33N 35°27' E 139°39'0 0.0
2014-Nov-23 12:33N 35°27' E 139°39'2 1.5
2014-Nov-23 11:33N 35°28' E 139°40'1 1.2
2014-Nov-23 10:33N 35°27' E 139°39'1 0.6
2014-Nov-23 09:33N 35°27' E 139°39'0 0.1
2014-Nov-23 08:33N 35°27' E 139°39'0 0.5
2014-Nov-23 07:33N 35°27' E 139°39'1 0.5
2014-Nov-23 06:33N 35°27' E 139°39'0 0.0
2014-Nov-23 05:33N 35°27' E 139°39'0 0.0
2014-Nov-23 04:33N 35°27' E 139°39'1 0.5
2014-Nov-23 03:33N 35°27' E 139°39'1 0.5
2014-Nov-23 02:33N 35°27' E 139°39'0 0.0
2014-Nov-23 01:33N 35°27' E 139°39'0 0.0
2014-Nov-23 00:33N 35°27' E 139°39'0 0.0
2014-Nov-22 12:30N 35°27' E 139°39'1 0.8
2014-Nov-22 11:34N 35°28' E 139°39'0 0.2
2014-Nov-22 10:33N 35°27' E 139°40'1 0.8
2014-Nov-22 09:33N 35°27' E 139°39'0 0.0
2014-Nov-22 08:34N 35°27' E 139°39'1 0.5
2014-Nov-22 07:33N 35°27' E 139°39'0 0.4
2014-Nov-22 06:34N 35°27' E 139°39'0 0.3
2014-Nov-22 05:33N 35°27' E 139°39'0 0.1
2014-Nov-22 04:34N 35°27' E 139°39'1 0.6
2014-Nov-22 03:33N 35°27' E 139°39'1 0.6
2014-Nov-22 02:34N 35°27' E 139°39'0 0.0
2014-Nov-22 01:33N 35°27' E 139°39'0 0.0
2014-Nov-22 00:33N 35°27' E 139°39'1 0.0
2014-Nov-21 12:33N 35°27' E 139°39'1 0.7
2014-Nov-21 11:33N 35°28' E 139°39'1 0.7
2014-Nov-21 10:33N 35°27' E 139°39'1 0.5
2014-Nov-21 09:33N 35°27' E 139°39'0 0.0
2014-Nov-21 08:33N 35°27' E 139°39'1 0.6
2014-Nov-21 07:34N 35°27' E 139°39'1 0.6
2014-Nov-21 06:33N 35°27' E 139°39'0 0.1
2014-Nov-21 05:33N 35°27' E 139°39'3 2.7
2014-Nov-21 04:33N 35°28' E 139°42'3 2.9
2014-Nov-21 03:33N 35°27' E 139°39'1 0.5
2014-Nov-21 02:33N 35°27' E 139°39'0 0.0
2014-Nov-21 01:33N 35°27' E 139°39'0 0.0
2014-Nov-21 00:33N 35°27' E 139°39'0 0.0
2014-Nov-20 12:29N 35°27' E 139°39'2 2.0
2014-Nov-20 11:33N 35°28' E 139°41'2 1.8
2014-Nov-20 10:34N 35°27' E 139°39'1 0.6
2014-Nov-20 09:33N 35°27' E 139°39'1 0.9
2014-Nov-20 08:33N 35°28' E 139°39'0 0.4
2014-Nov-20 07:33N 35°27' E 139°39'1 0.5
2014-Nov-20 06:33N 35°27' E 139°39'0 0.1
2014-Nov-20 05:33N 35°27' E 139°39'0 0.1
2014-Nov-20 04:33N 35°27' E 139°39'1 0.5
2014-Nov-20 03:33N 35°27' E 139°39'1 0.5
2014-Nov-20 02:33N 35°27' E 139°39'0 0.0
2014-Nov-20 01:33N 35°27' E 139°39'0 0.0
2014-Nov-20 00:34N 35°27' E 139°39'0 0.0
2014-Nov-19 12:26N 35°27' E 139°39'2 2.3
2014-Nov-19 11:33N 35°28' E 139°41'2 2.0
2014-Nov-19 10:34N 35°27' E 139°39'1 0.6
2014-Nov-19 09:33N 35°27' E 139°39'0 0.0
2014-Nov-19 08:33N 35°27' E 139°39'1 0.6
2014-Nov-19 07:33N 35°27' E 139°39'1 0.6
2014-Nov-19 06:33N 35°27' E 139°39'0 0.1
2014-Nov-19 05:33N 35°27' E 139°39'0 0.3
2014-Nov-19 04:33N 35°27' E 139°39'0 0.4
2014-Nov-19 03:33N 35°27' E 139°40'1 0.8
2014-Nov-19 02:33N 35°27' E 139°39'0 0.0
2014-Nov-19 01:33N 35°27' E 139°39'0 0.0
2014-Nov-19 00:33N 35°27' E 139°39'  
Track history (hours):
 
Tides and Currents Weather Stations Pressure Air Temp Water Temp Dewpoint Dewpoint Depression Visibility Wind Speed Wind Dir Waves Ship Positions

Marine Rouge

Last reported at 2014-Nov-28 12:33 UTC. Time now 2014-Nov-28 14:38 UTC.
Position N 35°27' E 139°39'.

Length 52 m; draft 2.8 m.

Type: Passenger vessel. MMSI: 431000518.

Date/timePositionNaut miles runAvg speedWind from/ knotsBaromVisibWave heightAir tempDewpointWater temp
2014-Nov-28 12:33N 35°27' E 139°39'2 1.8
2014-Nov-28 11:33N 35°27' E 139°41'2 1.8
2014-Nov-28 10:33N 35°27' E 139°39'1 0.5
2014-Nov-28 09:33N 35°27' E 139°39'0 0.1
2014-Nov-28 08:34N 35°27' E 139°39'0 0.5
2014-Nov-28 07:33N 35°27' E 139°39'1 0.5
2014-Nov-28 06:33N 35°27' E 139°39'0 0.1
2014-Nov-28 05:33N 35°27' E 139°39'0 0.1
2014-Nov-28 04:34N 35°27' E 139°39'1 0.6
2014-Nov-28 03:33N 35°27' E 139°39'1 0.6
2014-Nov-28 02:34N 35°27' E 139°39'0 0.0
2014-Nov-28 01:34N 35°27' E 139°39'0 0.0
2014-Nov-28 00:33N 35°27' E 139°39'0 0.0
2014-Nov-27 12:34N 35°27' E 139°39'1 1.2
2014-Nov-27 11:33N 35°28' E 139°40'1 1.1
2014-Nov-27 10:34N 35°27' E 139°39'1 0.5
2014-Nov-27 09:33N 35°27' E 139°39'1 1.3
2014-Nov-27 08:34N 35°28' E 139°40'1 1.3
2014-Nov-27 07:33N 35°27' E 139°39'1 0.5
2014-Nov-27 06:34N 35°27' E 139°39'0 0.1
2014-Nov-27 05:34N 35°27' E 139°39'0 0.1
2014-Nov-27 04:33N 35°27' E 139°39'1 0.6
2014-Nov-27 03:33N 35°27' E 139°39'1 0.6
2014-Nov-27 02:34N 35°27' E 139°39'0 0.0
2014-Nov-27 01:34N 35°27' E 139°39'0 0.0
2014-Nov-27 00:34N 35°27' E 139°39'1 0.1
2014-Nov-26 11:33N 35°28' E 139°39'1 1.3
2014-Nov-26 10:33N 35°27' E 139°40'1 1.2
2014-Nov-26 09:33N 35°27' E 139°39'0 0.0
2014-Nov-26 08:33N 35°27' E 139°39'3 3.2
2014-Nov-26 07:34N 35°27' E 139°43'3 3.1
2014-Nov-26 06:33N 35°27' E 139°39'0 0.1
2014-Nov-26 05:33N 35°27' E 139°39'0 0.1
2014-Nov-26 04:33N 35°27' E 139°39'3 3.0
2014-Nov-26 03:33N 35°27' E 139°43'3 3.0
2014-Nov-26 02:33N 35°27' E 139°39'0 0.0
2014-Nov-26 01:33N 35°27' E 139°39'0 0.0
2014-Nov-26 00:33N 35°27' E 139°39'0 0.0
2014-Nov-25 12:28N 35°27' E 139°39'2 2.1
2014-Nov-25 11:33N 35°27' E 139°42'2 2.2
2014-Nov-25 10:33N 35°27' E 139°39'1 0.6
2014-Nov-25 09:33N 35°27' E 139°39'2 1.7
2014-Nov-25 08:33N 35°28' E 139°40'1 1.3
2014-Nov-25 07:33N 35°27' E 139°39'1 0.6
2014-Nov-25 06:33N 35°27' E 139°39'0 0.1
2014-Nov-25 05:33N 35°27' E 139°39'0 0.1
2014-Nov-25 04:33N 35°27' E 139°39'1 0.5
2014-Nov-25 03:34N 35°27' E 139°39'1 0.5
2014-Nov-25 02:33N 35°27' E 139°39'0 0.0
2014-Nov-25 01:33N 35°27' E 139°39'0 0.0
2014-Nov-25 00:33N 35°27' E 139°39'0 0.0
2014-Nov-24 12:27N 35°27' E 139°39'1 0.7
2014-Nov-24 11:33N 35°28' E 139°39'1 0.6
2014-Nov-24 10:34N 35°27' E 139°39'1 0.5
2014-Nov-24 09:33N 35°27' E 139°39'0 0.0
2014-Nov-24 08:33N 35°27' E 139°39'1 0.5
2014-Nov-24 07:33N 35°27' E 139°39'1 0.5
2014-Nov-24 06:33N 35°27' E 139°39'0 0.1
2014-Nov-24 05:34N 35°27' E 139°39'0 0.1
2014-Nov-24 04:33N 35°27' E 139°39'1 0.5
2014-Nov-24 03:34N 35°27' E 139°39'1 0.5
2014-Nov-24 02:33N 35°27' E 139°39'0 0.0
2014-Nov-24 01:33N 35°27' E 139°39'0 0.0
2014-Nov-24 00:33N 35°27' E 139°39'0 0.0
2014-Nov-23 12:33N 35°27' E 139°39'2 1.5
2014-Nov-23 11:33N 35°28' E 139°40'1 1.2
2014-Nov-23 10:33N 35°27' E 139°39'1 0.6
2014-Nov-23 09:33N 35°27' E 139°39'0 0.1
2014-Nov-23 08:33N 35°27' E 139°39'0 0.5
2014-Nov-23 07:33N 35°27' E 139°39'1 0.5
2014-Nov-23 06:33N 35°27' E 139°39'0 0.0
2014-Nov-23 05:33N 35°27' E 139°39'0 0.0
2014-Nov-23 04:33N 35°27' E 139°39'1 0.5
2014-Nov-23 03:33N 35°27' E 139°39'1 0.5
2014-Nov-23 02:33N 35°27' E 139°39'0 0.0
2014-Nov-23 01:33N 35°27' E 139°39'0 0.0
2014-Nov-23 00:33N 35°27' E 139°39'0 0.0
2014-Nov-22 12:30N 35°27' E 139°39'1 0.8
2014-Nov-22 11:34N 35°28' E 139°39'0 0.2
2014-Nov-22 10:33N 35°27' E 139°40'1 0.8
2014-Nov-22 09:33N 35°27' E 139°39'0 0.0
2014-Nov-22 08:34N 35°27' E 139°39'1 0.5
2014-Nov-22 07:33N 35°27' E 139°39'0 0.4
2014-Nov-22 06:34N 35°27' E 139°39'0 0.3
2014-Nov-22 05:33N 35°27' E 139°39'0 0.1
2014-Nov-22 04:34N 35°27' E 139°39'1 0.6
2014-Nov-22 03:33N 35°27' E 139°39'1 0.6
2014-Nov-22 02:34N 35°27' E 139°39'0 0.0
2014-Nov-22 01:33N 35°27' E 139°39'0 0.0
2014-Nov-22 00:33N 35°27' E 139°39'1 0.0
2014-Nov-21 12:33N 35°27' E 139°39'1 0.7
2014-Nov-21 11:33N 35°28' E 139°39'1 0.7
2014-Nov-21 10:33N 35°27' E 139°39'1 0.5
2014-Nov-21 09:33N 35°27' E 139°39'0 0.0
2014-Nov-21 08:33N 35°27' E 139°39'1 0.6
2014-Nov-21 07:34N 35°27' E 139°39'1 0.6
2014-Nov-21 06:33N 35°27' E 139°39'0 0.1
2014-Nov-21 05:33N 35°27' E 139°39'3 2.7
2014-Nov-21 04:33N 35°28' E 139°42'3 2.9
2014-Nov-21 03:33N 35°27' E 139°39'1 0.5
2014-Nov-21 02:33N 35°27' E 139°39'0 0.0
2014-Nov-21 01:33N 35°27' E 139°39'0 0.0
2014-Nov-21 00:33N 35°27' E 139°39'0 0.0
2014-Nov-20 12:29N 35°27' E 139°39'2 2.0
2014-Nov-20 11:33N 35°28' E 139°41'2 1.8
2014-Nov-20 10:34N 35°27' E 139°39'1 0.6
2014-Nov-20 09:33N 35°27' E 139°39'1 0.9
2014-Nov-20 08:33N 35°28' E 139°39'0 0.4
2014-Nov-20 07:33N 35°27' E 139°39'1 0.5
2014-Nov-20 06:33N 35°27' E 139°39'0 0.1
2014-Nov-20 05:33N 35°27' E 139°39'0 0.1
2014-Nov-20 04:33N 35°27' E 139°39'1 0.5
2014-Nov-20 03:33N 35°27' E 139°39'1 0.5
2014-Nov-20 02:33N 35°27' E 139°39'0 0.0
2014-Nov-20 01:33N 35°27' E 139°39'0 0.0
2014-Nov-20 00:34N 35°27' E 139°39'0 0.0
2014-Nov-19 12:26N 35°27' E 139°39'2 2.3
2014-Nov-19 11:33N 35°28' E 139°41'2 2.0
2014-Nov-19 10:34N 35°27' E 139°39'1 0.6
2014-Nov-19 09:33N 35°27' E 139°39'0 0.0
2014-Nov-19 08:33N 35°27' E 139°39'1 0.6
2014-Nov-19 07:33N 35°27' E 139°39'1 0.6
2014-Nov-19 06:33N 35°27' E 139°39'0 0.1
2014-Nov-19 05:33N 35°27' E 139°39'0 0.3
2014-Nov-19 04:33N 35°27' E 139°39'0 0.4
2014-Nov-19 03:33N 35°27' E 139°40'1 0.8
2014-Nov-19 02:33N 35°27' E 139°39'0 0.0
2014-Nov-19 01:33N 35°27' E 139°39'0 0.0
2014-Nov-19 00:33N 35°27' E 139°39'  

Dump ship's entire track history